Location: Mentone
(34.5413°N, 85.5351°W)
Time: 14:06:35
(UTC-06:00)

Uosat F - Visible Passes

Search period start: 10 February 2016 00:00
Search period end: 20 February 2016 00:00
Orbit: 751 x 761 km, 98.8° (Epoch: 09 February)

Date Brightness Start Highest point End Pass type
(mag) Time Alt. Az. Time Alt. Az. Time Alt. Az.
10 Feb 12.8 04:41:05 10° NNE 04:45:40 34° E 04:50:13 10° SSE visible
11 Feb 14.2 04:03:41 10° ENE 04:05:59 13° E 04:08:18 10° ESE visible
11 Feb 11.1 05:40:06 10° N 05:45:03 58° WNW 05:50:00 10° SSW visible
12 Feb 11.8 05:00:44 10° NNE 05:05:42 55° E 05:10:38 10° S visible
12 Feb 14.4 17:51:34 10° SW 17:54:15 14° W 17:56:59 10° WNW visible
13 Feb 13.6 04:22:19 10° NE 04:26:09 21° E 04:29:55 10° SE visible
13 Feb 11.6 06:00:20 10° N 06:04:56 36° WNW 06:09:32 10° SW visible
14 Feb 11.1 05:20:37 10° NNE 05:25:41 88° ESE 05:30:45 10° SSW visible
15 Feb 12.8 04:41:39 10° NNE 04:46:14 34° E 04:50:46 10° SSE visible
16 Feb 14.2 04:04:16 10° ENE 04:06:33 13° E 04:08:50 10° ESE visible
16 Feb 11.1 05:40:39 10° N 05:45:37 58° WNW 05:50:34 10° SSW visible
17 Feb 11.9 05:01:19 10° NNE 05:06:16 54° E 05:11:12 10° S visible
17 Feb 14.4 17:52:05 10° SW 17:54:49 15° W 17:57:33 10° WNW visible
18 Feb 13.6 04:22:54 10° NE 04:26:42 21° E 04:30:29 10° SE visible
19 Feb 11.1 05:21:10 10° NNE 05:26:15 87° ESE 05:31:18 10° SSW visible
